Theta_e
329 331 336 351 353 353 354 353 354 353 354 354 354 354 354 353 352 352 352 352 352 352 351 349 347 345 344 344 344 343 344 345 346 344 343 341 341 342 342 342 344 341 344
325 333 340 350 352 353 352 352 352 352 354 354 354 354 354 354 352 352 352 351 352 350 349 347 346 344 342 344 344 346 346 345 344 343 342 343 344 345 343 344 344 344 346
327 338 347 347 351 351 351 352 351 351 352 353 354 355 354 354 352 352 352 351 351 351 347 344 345 343 345 344 346 346 344 344 343 342 342 341 344 346 346 346 347 346 346
327 337 341 344 348 350 351 350 350 351 351 352 353 353 353 353 352 352 352 351 350 351 346 344 344 342 344 344 345 344 343 343 343 342 341 341 344 346 347 346 345 345 344
317 329 332 342 347 349 349 350 350 350 350 351 351 353 353 352 351 351 351 350 350 350 348 345 344 343 343 343 343 342 343 343 340 339 342 342 343 344 345 345 342 341 341
311 317 324 333 340 345 345 346 348 350 351 350 350 351 352 351 350 350 349 349 349 348 349 346 345 343 344 343 344 343 343 341 337 341 342 342 342 344 343 341 339 338 339
309 313 316 323 327 334 341 345 345 347 348 349 349 349 350 350 349 349 348 347 347 347 347 345 345 344 343 343 344 344 342 338 339 340 340 339 339 342 341 339 337 336 335
305 311 314 316 320 326 329 334 338 343 345 347 347 346 347 348 348 348 347 347 347 346 345 344 344 343 343 343 343 341 337 334 335 338 339 339 340 340 339 336 334 334 334
300 308 309 313 314 318 322 324 330 333 336 342 344 344 343 343 343 344 344 346 346 345 344 343 342 341 342 343 341 338 333 331 337 337 336 337 338 339 338 336 334 333 333
300 303 305 306 311 314 318 320 321 328 330 334 337 337 335 335 337 338 337 341 344 343 342 341 340 341 342 341 338 334 330 329 336 335 335 335 337 337 335 335 334 331 331
297 299 301 304 303 308 313 313 317 320 325 328 332 329 330 338 339 338 335 336 342 341 340 340 340 340 338 336 334 330 328 335 334 334 334 332 338 335 334 333 332 331 330
293 295 299 299 302 305 308 311 311 316 319 324 330 335 336 338 338 338 331 331 334 335 338 339 340 335 332 337 335 329 333 333 333 333 332 333 338 335 334 332 331 330 330
291 293 296 297 300 304 308 310 311 313 315 319 324 330 335 336 337 335 335 334 337 327 339 338 338 337 335 335 334 333 333 332 332 332 330 330 337 336 336 333 332 330 330
290 292 294 296 296 301 307 309 309 310 313 314 317 321 327 331 335 334 334 334 335 336 336 337 337 335 333 333 332 331 332 331 331 331 329 324 333 338 336 335 334 333 331
290 292 294 296 296 297 300 307 307 308 310 311 313 316 320 323 328 335 334 333 333 333 335 335 334 331 331 330 330 330 329 329 329 330 331 319 327 335 337 337 336 335 333
290 292 296 296 296 297 299 305 305 307 308 310 311 313 317 322 325 333 333 332 331 331 332 332 331 331 331 330 329 328 328 329 328 328 330 329 324 329 335 336 336 335 333
290 293 295 296 297 297 300 304 305 306 308 309 309 311 314 318 321 328 332 331 329 329 330 330 329 330 328 328 326 327 327 327 328 328 329 330 329 322 328 331 332 334 332
290 292 296 296 294 297 299 302 303 304 305 307 309 310 312 316 318 325 329 330 330 330 330 328 326 325 325 326 325 325 327 327 326 327 327 328 327 326 323 328 330 330 330
290 292 294 295 294 298 299 301 302 303 304 305 306 308 310 313 316 322 328 330 331 329 327 327 325 325 322 323 323 324 325 326 325 325 325 323 320 317 316 317 318 323 329
289 292 294 295 299 301 302 300 301 302 303 304 305 307 309 313 314 319 324 329 328 327 325 325 324 324 323 321 320 319 318 317 317 315 313 310 307 307 306 307 311 313 318
288 289 291 296 298 299 299 298 299 300 302 305 308 310 312 315 315 316 320 326 326 325 324 325 324 321 319 321 317 310 305 303 301 303 302 300 299 298 297 297 298 297 302
285 287 289 292 294 296 296 298 301 302 304 305 307 311 315 317 319 318 324 325 326 324 323 323 322 320 317 320 316 313 303 302 298 296 297 295 293 294 292 292 291 291 291
283 285 287 290 292 293 295 298 301 303 304 305 309 312 310 309 310 322 326 326 325 325 322 322 323 321 317 319 318 314 307 302 294 293 292 291 290 288 287 288 287 287 287
282 284 286 289 290 292 293 295 296 298 298 303 307 308 304 302 303 308 326 325 324 324 322 322 323 321 319 314 313 312 311 304 297 290 290 287 287 286 285 285 285 285 285
282 283 284 287 288 289 290 292 294 296 301 305 303 300 299 297 297 299 307 318 312 308 303 316 317 318 317 315 310 306 305 305 303 296 287 285 284 284 284 283 282 283 283
280 282 283 284 286 287 288 289 290 292 293 295 295 294 293 293 292 293 295 297 298 295 294 291 291 290 291 291 290 289 294 299 297 297 290 287 283 280 281 281 281 281 281
Wind_Speed
9 17 15 11 9 12 13 13 12 11 11 16 17 18 17 18 17 17 18 16 16 16 17 16 13 14 12 13 14 13 13 12 11 12 13 13 14 14 14 10 8 10 9
13 13 11 10 9 12 14 14 13 12 11 16 17 18 19 18 18 18 18 17 17 17 18 17 15 13 13 12 12 12 13 11 10 10 10 10 12 12 13 9 9 10 15
11 11 9 9 7 11 13 13 14 14 13 15 17 18 19 20 19 19 18 17 17 18 18 16 15 15 13 13 13 13 13 11 10 10 9 8 8 13 14 14 17 19 19
11 10 13 10 8 10 12 13 14 14 14 14 16 19 20 19 19 20 19 17 18 18 19 18 19 16 13 12 13 13 11 11 10 9 9 9 9 18 18 16 18 18 17
13 12 14 16 12 8 12 13 14 15 14 14 14 15 19 19 19 19 19 18 17 18 19 19 20 18 16 14 12 13 12 12 10 9 9 10 9 14 16 17 15 16 12
12 11 14 19 21 11 9 13 14 14 15 15 15 14 17 19 19 19 19 18 18 17 17 18 18 18 16 15 16 15 15 14 9 8 10 11 9 16 17 16 16 13 10
11 9 10 18 18 19 18 9 12 13 15 15 14 15 15 17 18 18 18 18 17 17 16 15 17 16 16 16 16 16 15 14 11 8 8 7 7 16 16 15 14 12 12
9 8 8 11 15 16 17 17 15 10 11 13 14 16 17 16 17 17 17 17 17 17 16 15 16 17 15 14 16 16 15 13 10 10 9 8 12 15 17 13 12 10 11
6 6 6 7 8 10 11 14 13 12 10 8 11 13 15 17 19 18 17 17 17 16 16 16 17 17 16 14 15 16 14 13 12 8 10 8 10 12 14 13 10 11 9
7 4 6 6 5 5 4 7 11 11 10 9 8 6 8 10 12 13 11 14 16 16 16 16 16 17 17 15 16 16 13 12 12 11 8 8 13 13 11 11 11 9 8
10 10 9 7 6 6 5 4 5 7 9 8 8 9 6 5 8 12 12 13 15 15 15 16 15 14 13 15 16 15 15 8 10 8 7 11 14 15 13 12 11 10 9
14 15 8 10 8 5 5 4 4 4 4 4 5 7 4 6 6 9 11 12 11 11 12 14 14 13 12 10 9 13 8 10 9 9 7 14 15 17 14 13 13 11 11
15 10 10 11 10 7 4 3 3 2 2 3 5 6 6 4 5 4 4 4 6 8 8 11 10 7 10 9 9 9 10 10 7 7 8 11 13 17 17 15 14 13 12
18 16 13 10 10 10 4 3 3 3 3 3 2 4 4 4 4 4 5 7 8 5 10 10 7 8 9 10 12 11 11 9 7 6 8 9 9 15 15 16 16 16 15
15 17 16 13 11 9 7 3 1 3 2 3 3 2 3 4 4 3 6 8 8 5 9 9 8 10 10 10 9 10 10 9 9 5 5 9 10 10 15 16 15 14 14
17 16 16 14 10 9 6 5 2 4 4 3 2 3 3 3 4 5 5 9 7 7 6 7 9 9 9 9 10 10 10 9 8 7 5 6 9 9 10 12 15 14 11
15 16 14 15 10 10 8 5 4 4 5 4 2 4 5 4 5 5 6 9 10 8 10 6 8 8 8 8 9 8 8 9 8 9 6 5 6 1 7 3 4 10 6
16 16 15 12 12 10 6 5 4 5 5 4 4 2 6 6 5 4 3 8 9 12 11 9 8 6 7 9 7 6 6 7 9 9 7 3 2 6 10 13 12 12 10
16 16 16 12 10 10 8 5 5 5 4 4 4 4 7 7 7 5 6 6 10 8 9 8 7 9 6 6 6 6 6 6 7 5 4 7 9 9 8 18 20 17 16
16 15 15 8 9 12 7 4 2 3 4 4 4 6 7 5 8 7 4 9 10 8 7 7 7 7 8 8 4 3 6 6 6 7 8 8 9 10 8 10 10 12 20
16 16 15 12 11 8 6 3 2 2 2 4 5 7 6 5 7 8 5 7 9 8 9 11 9 10 4 9 7 8 8 9 10 8 8 8 10 10 11 10 7 7 10
16 16 15 14 12 9 6 6 4 3 4 5 5 6 5 6 7 8 8 8 10 7 10 11 11 8 4 7 4 7 5 3 8 9 7 9 11 8 11 12 12 12 10
16 16 15 14 13 11 11 7 6 5 4 3 2 3 5 8 7 10 11 9 11 10 10 11 11 12 8 12 11 4 5 4 4 5 10 8 10 7 8 11 12 12 10
15 15 15 13 12 11 12 8 8 6 5 3 5 3 4 7 8 10 11 10 10 8 10 10 8 9 9 9 5 4 5 6 5 5 5 4 8 9 11 6 9 10 11
14 14 13 13 11 12 12 10 8 7 6 3 3 4 6 6 9 10 9 3 5 5 7 2 3 7 5 8 5 4 4 3 7 5 5 4 5 8 6 8 6 8 9
14 14 13 14 12 13 11 11 10 7 8 6 6 5 5 5 7 12 11 8 9 9 9 9 10 15 12 10 8 8 3 3 3 4 5 5 7 5 6 6 6 7 6
Wind_Direction
321 321 300 255 188 181 164 159 161 160 169 170 169 164 166 162 163 157 155 157 154 148 140 136 147 146 145 148 146 144 141 141 134 133 134 136 138 133 133 141 151 140 145
303 314 295 254 204 178 165 163 159 157 174 170 172 170 168 168 166 164 161 159 156 154 147 144 150 150 149 144 143 141 139 130 124 128 131 141 146 139 139 140 155 148 125
335 332 306 268 225 188 160 160 159 158 176 177 176 176 176 171 171 169 163 161 159 158 151 154 160 151 142 150 150 144 136 129 132 139 154 149 146 149 134 122 116 120 112
336 357 356 316 275 197 170 166 165 165 177 182 182 182 182 172 173 172 168 168 164 162 160 153 146 151 149 142 141 136 145 143 143 152 161 152 135 135 133 122 113 109 106
6 10 10 7 323 241 177 176 176 170 177 184 182 182 181 176 176 174 171 170 169 169 165 160 153 157 157 156 154 151 153 139 132 153 156 151 141 142 132 116 105 92 95
9 11 17 28 27 341 254 202 185 179 178 180 184 179 179 179 177 176 173 170 171 170 172 168 160 162 163 164 161 160 148 138 139 142 147 145 143 124 108 105 106 109 112
356 5 21 23 27 23 14 274 219 199 191 182 184 181 180 180 181 179 174 174 176 174 175 173 162 165 169 171 167 158 146 140 147 139 129 116 132 122 119 117 118 123 128
342 349 9 25 28 20 16 8 2 251 214 201 194 196 185 183 185 181 179 176 177 175 177 177 165 167 175 176 162 155 143 145 147 142 132 129 129 131 122 126 122 128 136
343 346 4 1 15 22 9 9 353 352 338 262 217 209 205 198 191 186 181 178 180 177 179 177 171 172 178 166 165 151 147 147 150 147 140 136 131 131 132 137 141 135 145
328 345 350 5 1 322 336 336 356 338 337 311 280 244 228 220 205 190 185 182 184 182 184 180 176 177 177 176 157 151 149 147 156 154 153 148 146 143 143 147 145 156 161
341 344 347 344 347 335 314 349 301 335 331 323 292 248 239 228 213 191 184 182 187 188 188 180 182 174 164 160 156 151 150 168 165 163 161 163 157 151 154 157 158 163 173
334 329 342 337 323 322 317 314 341 342 354 339 333 306 222 219 219 219 185 175 189 187 188 182 178 168 159 168 163 147 170 169 173 171 172 177 168 152 162 168 175 178 181
317 312 329 331 325 295 286 313 319 328 329 341 354 351 323 217 217 222 162 185 190 195 191 188 180 175 172 167 166 170 172 171 175 181 180 189 187 167 169 173 177 183 187
323 315 317 320 319 308 292 245 265 305 320 323 355 345 331 327 212 209 168 192 190 194 203 186 182 172 177 175 172 172 174 177 175 182 186 197 219 179 175 177 182 185 190
321 317 314 314 311 305 290 274 257 254 279 299 314 326 333 309 319 188 201 196 191 178 207 191 179 177 175 176 175 179 177 179 181 185 190 199 209 222 191 187 194 194 190
319 314 312 305 299 298 280 255 263 279 277 274 289 288 271 291 268 268 184 190 188 191 195 195 184 180 177 176 181 182 184 185 187 189 194 198 209 229 226 206 202 198 193
312 309 307 304 300 304 269 240 233 263 285 272 265 287 271 245 289 282 182 179 171 191 209 198 198 185 181 175 179 180 181 188 197 198 198 202 203 202 34 306 223 220 221
315 314 310 302 301 302 280 244 225 223 252 282 280 270 272 262 245 273 209 181 187 195 197 183 184 187 191 184 172 181 183 185 198 204 206 195 85 105 62 76 93 108 108
319 317 316 309 305 315 309 275 264 264 270 255 272 281 262 256 248 228 245 184 175 177 175 182 185 178 179 187 173 169 184 190 195 188 168 97 93 98 94 79 73 72 87
324 329 322 316 334 338 321 283 265 253 265 270 261 244 249 255 252 239 245 202 184 179 175 181 184 198 189 165 125 68 38 51 55 61 88 83 79 79 76 74 76 70 75
333 340 335 342 346 347 349 339 323 276 245 244 238 254 264 242 241 239 204 206 179 177 180 188 187 162 163 147 131 103 61 45 44 48 58 67 69 70 71 60 62 59 57
334 340 341 342 344 343 343 318 301 305 289 277 284 296 286 271 243 234 216 209 195 176 175 181 182 163 136 165 146 143 146 122 57 35 48 64 62 61 73 67 64 62 57
343 339 341 340 343 338 338 319 306 282 269 277 294 336 338 323 319 249 229 199 194 188 185 185 191 188 176 174 167 165 148 145 111 33 46 59 63 62 65 70 71 60 62
343 339 340 346 344 342 337 330 318 291 284 297 299 324 341 351 339 332 215 185 181 178 183 186 191 191 169 159 120 107 73 128 145 131 52 44 59 60 53 63 62 77 57
343 343 338 349 352 350 345 342 329 315 313 304 355 37 6 0 9 4 10 96 97 63 54 80 149 172 167 146 122 119 63 74 116 141 140 125 76 51 67 60 54 74 63
353 351 351 357 359 358 357 357 354 358 355 11 7 32 5 9 13 20 28 48 80 75 77 71 67 56 53 51 66 59 91 132 145 132 116 140 123 71 59 60 52 59 64